| time (UTC) | temp C | wind direction | speed KPH | gust KPH | rain 1hr cm | rain 24hr cm | rain mn cm | humidity % | barometer mb |
| 20260504081539 | 17 | 196 | 0.0 | 16.1 | 0.00 | 0.00 | 0.00 | 95 | 1012.0 |
| 20260504044534 | 16 | 69 | 0.0 | 3.2 | 0.00 | 0.00 | 0.00 | 97 | 1011.2 |
| 20260504043038 | 16 | 65 | 1.6 | 4.8 | 0.00 | 0.00 | 0.00 | 97 | 1011.2 |
| 20260504041524 | 16 | 72 | 3.2 | 6.4 | 0.00 | 0.00 | 0.00 | 97 | 1011.2 |
| 20260504040024 | 16 | 19 | 1.6 | 4.8 | 0.00 | 0.00 | 0.00 | 97 | 1011.3 |
| 20260504034521 | 16 | 359 | 0.0 | 4.8 | 0.00 | 0.00 | 0.00 | 97 | 1011.4 |
| 20260504033020 | 16 | 1 | 0.0 | 3.2 | 0.00 | 0.00 | 0.00 | 97 | 1011.7 |
| 20260504031520 | 16 | 323 | 1.6 | 4.8 | 0.00 | 0.00 | 0.00 | 97 | 1011.7 |
| 20260504030016 | 16 | 32 | 1.6 | 6.4 | 0.00 | 0.00 | 0.00 | 97 | 1011.8 |
| 20260504024515 | 16 | 62 | 0.0 | 6.4 | 0.00 | 0.00 | 0.00 | 97 | 1011.9 |
| 20260504023014 | 16 | 342 | 0.0 | 4.8 | 0.00 | 0.00 | 0.00 | 97 | 1011.9 |
| 20260504021514 | 16 | 32 | 0.0 | 6.4 | 0.00 | 0.00 | 0.00 | 97 | 1012.0 |
| 20260504020011 | 16 | 59 | 1.6 | 3.2 | 0.00 | 0.00 | 0.00 | 97 | 1012.1 |
| 20260504014510 | 16 | 70 | 0.0 | 1.6 | 0.00 | 0.00 | 0.00 | 97 | 1012.1 |
| 20260504013016 | 17 | 36 | 0.0 | 3.2 | 0.00 | 0.00 | 0.00 | 97 | 1012.1 |
| 20260504011508 | 17 | 75 | 0.0 | 3.2 | 0.00 | 0.00 | 0.00 | 97 | 1012.1 |
| 20260504010007 | 17 | 37 | 0.0 | 3.2 | 0.00 | 0.00 | 0.00 | 97 | 1012.2 |
| 20260504004513 | 17 | 46 | 0.0 | 3.2 | 0.00 | 0.00 | 0.00 | 97 | 1012.3 |
| 20260504003005 | 17 | 47 | 1.6 | 3.2 | 0.00 | 0.00 | 0.00 | 97 | 1012.2 |
| 20260504001505 | 17 | 50 | 1.6 | 3.2 | 0.00 | 0.00 | 0.00 | 97 | 1012.3 |
| 20260504000002 | 17 | 68 | 1.6 | 4.8 | 0.00 | 0.00 | 0.00 | 96 | 1012.3 |
| 20260503234600 | 17 | 58 | 0.0 | 1.6 | 0.00 | 0.00 | 0.00 | 96 | 1012.4 |
| 20260503234501 | 17 | 58 | 0.0 | 1.6 | 0.00 | 0.00 | 0.00 | 96 | 1012.4 |
| 20260503233059 | 17 | 62 | 0.0 | 3.2 | 0.00 | 0.00 | 0.00 | 96 | 1012.5 |
| 20260503231602 | 17 | 65 | 3.2 | 6.4 | 0.00 | 0.00 | 0.00 | 96 | 1012.7 |
| 20260503230105 | 17 | 65 | 1.6 | 9.7 | 0.00 | 0.00 | 0.00 | 95 | 1012.8 |
| 20260503224559 | 17 | 51 | 3.2 | 6.4 | 0.00 | 0.00 | 0.00 | 95 | 1012.8 |
| 20260503223053 | 17 | 50 | 3.2 | 8.0 | 0.00 | 0.00 | 0.00 | 95 | 1012.8 |
| 20260503221552 | 17 | 69 | 1.6 | 6.4 | 0.00 | 0.00 | 0.00 | 95 | 1012.9 |
| 20260503220051 | 17 | 41 | 3.2 | 6.4 | 0.00 | 0.00 | 0.00 | 95 | 1013.0 |
| 20260503214551 | 17 | 62 | 1.6 | 3.2 | 0.00 | 0.00 | 0.00 | 95 | 1013.1 |
| 20260503213100 | 17 | 56 | 1.6 | 6.4 | 0.00 | 0.00 | 0.00 | 95 | 1013.2 |
| 20260503211606 | 17 | 59 | 3.2 | 6.4 | 0.00 | 0.00 | 0.00 | 95 | 1013.2 |
| 20260503210049 | 17 | 63 | 4.8 | 9.7 | 0.00 | 0.00 | 0.00 | 95 | 1013.2 |
| 20260503204549 | 17 | 63 | 6.4 | 11.3 | 0.00 | 0.00 | 0.00 | 94 | 1013.2 |
| 20260503203049 | 17 | 61 | 9.7 | 14.5 | 0.00 | 0.00 | 0.00 | 94 | 1013.0 |
| 20260503201547 | 17 | 74 | 8.0 | 11.3 | 0.00 | 0.00 | 0.00 | 94 | 1012.7 |
| 20260503200056 | 17 | 90 | 8.0 | 17.7 | 0.00 | 0.00 | 0.00 | 94 | 1012.5 |
| 20260503194546 | 17 | 59 | 9.7 | 17.7 | 0.00 | 0.00 | 0.00 | 94 | 1012.1 |
| 20260503193056 | 17 | 75 | 14.5 | 20.9 | 0.00 | 0.00 | 0.00 | 94 | 1011.8 |
| 20260503191548 | 17 | 77 | 14.5 | 19.3 | 0.00 | 0.00 | 0.00 | 94 | 1011.5 |
| 20260503190050 | 17 | 69 | 14.5 | 20.9 | 0.00 | 0.00 | 0.00 | 94 | 1011.4 |
| 20260503184556 | 17 | 68 | 17.7 | 22.5 | 0.00 | 0.00 | 0.00 | 94 | 1011.4 |
| 20260503183142 | 17 | 69 | 16.1 | 20.9 | 0.00 | 0.00 | 0.00 | 93 | 1011.5 |
| 20260503181602 | 17 | 65 | 16.1 | 19.3 | 0.00 | 0.00 | 0.00 | 93 | 1011.2 |
| 20260503180051 | 17 | 50 | 16.1 | 19.3 | 0.00 | 0.00 | 0.00 | 93 | 1011.2 |
| 20260503174546 | 17 | 77 | 14.5 | 19.3 | 0.00 | 0.00 | 0.00 | 92 | 1011.1 |
| 20260503173053 | 17 | 63 | 16.1 | 20.9 | 0.00 | 0.00 | 0.00 | 91 | 1011.0 |
| 20260503171538 | 17 | 61 | 14.5 | 19.3 | 0.00 | 0.00 | 0.00 | 90 | 1011.0 |